STARLINK-11455, 62463

Orbit data source: Space-Track

STARLINK-11455, 62463 is a payload satellite owned by SpaceX/Seattle (US) in LEO that was launched on Tue, 31 Dec 2024 UTC via an FALCON 9 launch vehicle from the Air Force Eastern Test Range (AFETR). Payload-class satellites include a variety of spacecraft equipped with specific instruments for various scientific and technological missions. These include communications satellites like Starlink; space stations such as the ISS; scientific satellites like the Hubble; Earth observation satellites from companies like Planet Labs, Umbra, and HawkEye 360; GPS; miniature CubeSats for education and research; and military/defense satellites.

Loading next visibility...
Identifier
62463, 2024-254B
Orbit
LEO
Country
Flag of USUS
Related business
Manufacturer
SpaceX/Seattle
Mission
Operational Commercial Communications
Bus & Motor
STARLINK V2MD, Unknown motor
Mass
960 kg wet, ~910 kg dry
Launch date (UTC)
2024-12-31 (10 months ago)
Launch vehicle
FALCON 9
Launch site
Air Force Eastern Test Range (AFETR)
Object type
Payload
Rocket body
Debris
Shape & HBR
Box + 2 Pan, 18.1 m
Radar Cross Section
36.964 m², Large (>1 m²)

Expand to show TLE details & history
Last TLE update: 14 hours ago

TLE from 14 hours ago
0 STARLINK-11455
1 62463U 24254B   25294.55453992  .00180734  00000-0  13785-2 0  9991
2 62463  42.9996 342.1141 0001024 266.6985  93.3765 15.70894029 47512
Epoch: 2025-10-21T13:18Z
TLE epoch observation values (Epoch: 2025-10-21T13:18:32.249Z)
Latitude
-0.00004°
Longitude
112.23886°
Altitude
356.152 km
Speed
7.697 km/s
True Right ascension
22h 48m 27s
True Declination
0° 00' 00"
Sunlit
Object was in full shadow at epoch
Visualization orbit readout
Latitude
Unknown
Longitude
Unknown
Altitude
Unknown
Speed
Unknown
Apparent Right ascension
Unknown
Apparent Declination
Unknown
Sunlit
N/A
Visualization observer readout
Local Sidereal Time
22:42:40
Azimuth
Unknown
Elevation
Unknown
Doppler factor
Unknown
Orbital elements
Apogee altitude
359.012 km
Perigee altitude
357.633 km
Semi-major axis
6,736.459 km
Eccentricity
0.0001
Inclination
42.9996°
RAAN
342.1141°
Arg. of periapsis
266.6985°
True anomaly
93.38821°
Mean anomaly
93.3765°
Eccentric anomaly
93.38236°
Mean motion
3.92551 °/min
Orbital period
91.71 mins
BSTAR
0.0013785
Loading maneuver chart data...
Computing Atmospheric mass density...
Loading historical data...
Loading historical data...
Loading historical data...
Loading historical data...
Loading historical data...
Loading historical data...
Loading historical data...

Documentation

Showing up to 5 results
|